Location: Wheeling
(40.0640°N, 80.7210°W)
Time: 20:20:27
(UTC-05:00)

KAITUO 1B - Pass Details

Date: 27 October 2021
Orbit: 490 x 506 km, 97.4° (Epoch: 30 November)

Event Time Altitude Azimuth Distance (km) Brightness Sun altitude
Rises 19:35:50 0° 188° (S) 2,551 ? -13.9°
Reaches altitude 10° 19:38:02 10° 198° (SSW) 1,674 ? -14.3°
Maximum altitude 19:41:17 31° 263° (W) 873 ? -15.0°
Drops below altitude 10° 19:44:33 10° 327° (NNW) 1,687 ? -15.6°
Sets 19:46:48 0° 338° (NNW) 2,574 ? -16.0°
